Tracking 19164 objects as of 21-May-2018
HD Live streaming from Space Station
objects crossing your sky now

NOAA 16 DEB

Track NOAA 16 DEB now!
10-day predictions


NORAD ID: 41126
Int'l Code: 2000-055BH
Perigee: 849.1 km
Apogee: 958.2 km
Inclination: 98.9 °
Period: 102.9 minutes
Semi major axis: 7274 km
RCS: Unknown
Launch date: September 21, 2000
Source: United States (US)
Launch site: AIR FORCE WESTERN TEST RANGE (AFWTR)

Note: This is SATELLITE DEBRIS
aabbcc
Your satellite tracking list
Your tracking list is empty




NASA's NSSDC Master Catalog

Two Line Element Set (TLE):
1 41126U 00055BH  18140.61222079  .00000226  00000-0  18089-3 0  9996
2 41126  98.8645 195.0824 0074976 329.5622  30.1200 13.99213459125568
Source of the keplerian elements: AFSPC